QPF
0.00 0.01 0.02 0.02 0.02 0.01 0.01 0.01 0.00 0.00 0.00 0.00 0.00 0.00 0.00 0.00 0.00 0.00 0.00 0.00 0.00 0.00 0.00 0.01 0.01 0.01 0.00 0.01 0.01 0.01 0.01 0.01 0.01 0.01 0.01 0.01 0.00 0.00 0.00 0.01 0.01 0.01 0.02
0.01 0.02 0.02 0.03 0.03 0.03 0.02 0.02 0.01 0.01 0.01 0.00 0.00 0.00 0.00 0.00 0.00 0.00 0.00 0.00 0.00 0.00 0.00 0.00 0.00 0.00 0.01 0.01 0.02 0.02 0.01 0.01 0.01 0.01 0.01 0.01 0.01 0.01 0.01 0.01 0.01 0.01 0.01
0.02 0.04 0.05 0.06 0.06 0.05 0.04 0.04 0.03 0.02 0.02 0.02 0.01 0.01 0.01 0.01 0.00 0.00 0.00 0.00 0.00 0.00 0.00 0.00 0.00 0.00 0.00 0.01 0.02 0.02 0.02 0.02 0.02 0.02 0.02 0.03 0.02 0.02 0.02 0.02 0.01 0.01 0.01
0.06 0.09 0.10 0.11 0.11 0.10 0.10 0.10 0.10 0.08 0.06 0.04 0.04 0.03 0.02 0.01 0.01 0.01 0.00 0.00 0.00 0.00 0.00 0.00 0.00 0.00 0.00 0.00 0.01 0.01 0.02 0.02 0.03 0.02 0.03 0.03 0.03 0.04 0.04 0.04 0.04 0.03 0.02
0.14 0.18 0.20 0.20 0.19 0.17 0.17 0.16 0.15 0.12 0.10 0.08 0.06 0.04 0.02 0.02 0.01 0.01 0.01 0.00 0.00 0.00 0.00 0.00 0.00 0.00 0.00 0.00 0.01 0.01 0.01 0.01 0.01 0.01 0.02 0.02 0.03 0.04 0.04 0.04 0.04 0.04 0.04
0.31 0.33 0.32 0.29 0.25 0.22 0.21 0.20 0.18 0.16 0.13 0.10 0.07 0.04 0.02 0.01 0.01 0.01 0.01 0.00 0.00 0.00 0.00 0.00 0.00 0.00 0.00 0.00 0.00 0.00 0.00 0.01 0.01 0.01 0.01 0.01 0.02 0.02 0.03 0.03 0.04 0.05 0.05
0.51 0.48 0.45 0.42 0.37 0.33 0.29 0.23 0.18 0.14 0.12 0.10 0.08 0.04 0.02 0.01 0.01 0.00 0.00 0.00 0.00 0.00 0.00 0.00 0.00 0.00 0.00 0.00 0.00 0.00 0.00 0.00 0.00 0.00 0.01 0.01 0.01 0.01 0.01 0.02 0.02 0.03 0.04
0.70 0.66 0.63 0.58 0.50 0.42 0.35 0.27 0.20 0.14 0.10 0.07 0.06 0.04 0.02 0.01 0.00 0.00 0.00 0.00 0.00 0.00 0.00 0.00 0.00 0.00 0.00 0.00 0.00 0.00 0.00 0.00 0.00 0.00 0.00 0.00 0.01 0.01 0.01 0.01 0.01 0.02 0.03
0.68 0.65 0.62 0.60 0.56 0.45 0.36 0.27 0.19 0.12 0.08 0.05 0.03 0.03 0.02 0.01 0.00 0.00 0.00 0.00 0.00 0.00 0.00 0.00 0.00 0.00 0.00 0.00 0.00 0.00 0.00 0.00 0.00 0.00 0.00 0.00 0.00 0.00 0.01 0.01 0.01 0.02 0.02
0.43 0.45 0.49 0.53 0.48 0.39 0.30 0.21 0.13 0.08 0.05 0.03 0.02 0.01 0.01 0.01 0.00 0.00 0.00 0.00 0.00 0.00 0.00 0.00 0.00 0.00 0.00 0.00 0.00 0.00 0.00 0.00 0.00 0.00 0.00 0.00 0.00 0.00 0.00 0.00 0.01 0.01 0.02
0.25 0.31 0.34 0.32 0.26 0.21 0.17 0.12 0.08 0.06 0.04 0.03 0.02 0.01 0.01 0.01 0.00 0.00 0.00 0.00 0.00 0.00 0.00 0.00 0.00 0.00 0.00 0.00 0.00 0.00 0.00 0.00 0.00 0.00 0.00 0.00 0.00 0.00 0.00 0.00 0.00 0.01 0.01
0.12 0.12 0.13 0.14 0.12 0.11 0.09 0.07 0.05 0.03 0.02 0.02 0.01 0.01 0.00 0.00 0.00 0.00 0.00 0.00 0.00 0.00 0.00 0.00 0.00 0.00 0.00 0.00 0.00 0.00 0.00 0.00 0.00 0.00 0.00 0.00 0.00 0.00 0.00 0.01 0.01 0.01 0.01
0.06 0.06 0.05 0.05 0.05 0.05 0.04 0.03 0.02 0.02 0.01 0.01 0.01 0.00 0.00 0.00 0.00 0.00 0.00 0.00 0.00 0.00 0.00 0.00 0.00 0.00 0.00 0.00 0.00 0.00 0.00 0.00 0.00 0.00 0.00 0.00 0.00 0.00 0.00 0.01 0.01 0.01 0.01
0.03 0.03 0.03 0.02 0.02 0.02 0.02 0.01 0.01 0.01 0.00 0.00 0.00 0.00 0.00 0.00 0.00 0.00 0.00 0.00 0.00 0.00 0.00 0.00 0.00 0.00 0.00 0.00 0.00 0.00 0.00 0.00 0.00 0.00 0.00 0.00 0.00 0.00 0.00 0.00 0.01 0.01 0.01
0.01 0.01 0.01 0.01 0.01 0.01 0.01 0.01 0.00 0.00 0.00 0.00 0.00 0.00 0.00 0.00 0.00 0.00 0.00 0.00 0.00 0.00 0.00 0.00 0.00 0.00 0.00 0.00 0.00 0.00 0.00 0.00 0.00 0.00 0.00 0.00 0.00 0.00 0.00 0.00 0.01 0.01 0.01
0.01 0.00 0.00 0.00 0.01 0.00 0.00 0.00 0.00 0.00 0.00 0.00 0.00 0.00 0.00 0.00 0.00 0.00 0.00 0.00 0.00 0.00 0.00 0.00 0.00 0.00 0.00 0.00 0.00 0.00 0.00 0.00 0.00 0.00 0.00 0.00 0.00 0.00 0.01 0.01 0.01 0.01 0.01
0.00 0.00 0.00 0.00 0.00 0.00 0.00 0.00 0.00 0.00 0.00 0.00 0.00 0.00 0.00 0.00 0.00 0.00 0.00 0.00 0.00 0.00 0.00 0.00 0.00 0.00 0.01 0.01 0.01 0.01 0.01 0.01 0.00 0.00 0.00 0.00 0.00 0.00 0.01 0.01 0.01 0.02 0.02
0.00 0.00 0.00 0.00 0.00 0.00 0.00 0.00 0.00 0.00 0.00 0.00 0.00 0.00 0.00 0.00 0.00 0.00 0.00 0.00 0.00 0.01 0.01 0.01 0.00 0.00 0.01 0.01 0.02 0.02 0.01 0.01 0.01 0.00 0.00 0.00 0.00 0.00 0.01 0.01 0.01 0.01 0.01
0.00 0.00 0.00 0.00 0.00 0.00 0.00 0.00 0.00 0.00 0.00 0.00 0.00 0.00 0.00 0.00 0.00 0.00 0.01 0.01 0.01 0.01 0.01 0.02 0.01 0.01 0.01 0.01 0.02 0.02 0.02 0.02 0.01 0.00 0.00 0.00 0.00 0.00 0.00 0.01 0.01 0.01 0.01
0.00 0.00 0.00 0.00 0.00 0.00 0.00 0.00 0.00 0.00 0.00 0.00 0.00 0.00 0.00 0.00 0.01 0.01 0.01 0.02 0.03 0.03 0.03 0.03 0.03 0.02 0.02 0.02 0.03 0.03 0.02 0.02 0.02 0.01 0.01 0.01 0.01 0.01 0.00 0.00 0.00 0.00 0.00
0.00 0.00 0.00 0.00 0.00 0.00 0.00 0.00 0.00 0.00 0.00 0.00 0.00 0.00 0.00 0.00 0.00 0.01 0.02 0.03 0.05 0.05 0.05 0.05 0.04 0.04 0.03 0.03 0.04 0.04 0.03 0.02 0.02 0.02 0.02 0.03 0.03 0.03 0.03 0.02 0.01 0.01 0.00
0.00 0.00 0.00 0.00 0.00 0.00 0.00 0.00 0.00 0.00 0.00 0.00 0.00 0.00 0.00 0.00 0.00 0.00 0.01 0.01 0.03 0.04 0.05 0.05 0.05 0.05 0.04 0.05 0.05 0.04 0.04 0.04 0.02 0.02 0.04 0.03 0.03 0.03 0.03 0.04 0.02 0.01 0.00
0.00 0.00 0.00 0.00 0.00 0.00 0.00 0.00 0.00 0.00 0.00 0.01 0.01 0.01 0.01 0.00 0.01 0.02 0.01 0.01 0.01 0.02 0.03 0.06 0.06 0.06 0.06 0.06 0.06 0.05 0.05 0.05 0.04 0.03 0.05 0.04 0.03 0.03 0.03 0.02 0.01 0.00 0.00
0.00 0.00 0.00 0.00 0.00 0.00 0.00 0.00 0.00 0.00 0.01 0.01 0.01 0.01 0.01 0.02 0.02 0.01 0.01 0.01 0.02 0.03 0.03 0.04 0.06 0.05 0.05 0.05 0.05 0.06 0.05 0.05 0.03 0.04 0.06 0.05 0.03 0.04 0.03 0.04 0.02 0.01 0.01
0.00 0.00 0.00 0.00 0.01 0.01 0.00 0.00 0.00 0.00 0.01 0.01 0.01 0.01 0.01 0.02 0.01 0.00 0.01 0.02 0.02 0.03 0.01 0.01 0.02 0.02 0.03 0.03 0.04 0.05 0.06 0.05 0.04 0.02 0.05 0.05 0.04 0.03 0.03 0.05 0.05 0.02 0.01
0.00 0.00 0.00 0.00 0.01 0.01 0.00 0.00 0.00 0.00 0.01 0.00 0.01 0.01 0.01 0.01 0.00 0.00 0.01 0.03 0.03 0.03 0.02 0.02 0.03 0.04 0.05 0.05 0.04 0.05 0.07 0.06 0.05 0.03 0.04 0.04 0.03 0.04 0.04 0.04 0.05 0.05 0.04
MSLP
1017.81 1017.99 1018.09 1018.15 1018.18 1018.21 1018.24 1018.28 1018.31 1018.32 1018.28 1018.19 1018.07 1017.93 1017.82 1017.78 1017.84 1018.01 1018.28 1018.63 1019.01 1019.36 1019.64 1019.81 1019.89 1019.87 1019.79 1019.70 1019.62 1019.59 1019.62 1019.69 1019.79 1019.91 1020.02 1020.11 1020.17 1020.23 1020.28 1020.34 1020.42 1020.52 1020.63
1018.06 1018.24 1018.36 1018.44 1018.50 1018.56 1018.62 1018.69 1018.75 1018.79 1018.78 1018.73 1018.63 1018.51 1018.39 1018.32 1018.33 1018.43 1018.63 1018.89 1019.19 1019.48 1019.72 1019.88 1019.94 1019.91 1019.83 1019.72 1019.61 1019.54 1019.52 1019.54 1019.59 1019.65 1019.71 1019.76 1019.80 1019.83 1019.85 1019.90 1019.96 1020.04 1020.15
1018.32 1018.53 1018.69 1018.82 1018.94 1019.05 1019.17 1019.29 1019.40 1019.47 1019.51 1019.48 1019.40 1019.28 1019.14 1019.03 1018.96 1018.97 1019.06 1019.23 1019.43 1019.65 1019.83 1019.96 1020.00 1019.98 1019.89 1019.77 1019.64 1019.53 1019.46 1019.42 1019.41 1019.42 1019.43 1019.44 1019.44 1019.43 1019.44 1019.46 1019.51 1019.59 1019.70
1018.49 1018.73 1018.96 1019.17 1019.36 1019.56 1019.75 1019.93 1020.09 1020.22 1020.29 1020.29 1020.23 1020.10 1019.94 1019.77 1019.63 1019.54 1019.52 1019.57 1019.67 1019.80 1019.93 1020.02 1020.05 1020.03 1019.94 1019.82 1019.68 1019.55 1019.43 1019.35 1019.28 1019.24 1019.21 1019.18 1019.14 1019.11 1019.10 1019.10 1019.14 1019.21 1019.32
1018.47 1018.78 1019.08 1019.38 1019.67 1019.95 1020.22 1020.47 1020.68 1020.86 1020.96 1021.00 1020.95 1020.83 1020.65 1020.43 1020.22 1020.03 1019.91 1019.85 1019.85 1019.89 1019.96 1020.02 1020.05 1020.03 1019.96 1019.85 1019.71 1019.57 1019.43 1019.32 1019.22 1019.14 1019.08 1019.02 1018.96 1018.92 1018.88 1018.87 1018.89 1018.95 1019.06
1018.26 1018.63 1019.02 1019.41 1019.80 1020.16 1020.50 1020.81 1021.07 1021.28 1021.42 1021.49 1021.46 1021.35 1021.16 1020.91 1020.64 1020.39 1020.17 1020.01 1019.92 1019.89 1019.90 1019.93 1019.96 1019.95 1019.91 1019.82 1019.71 1019.58 1019.45 1019.33 1019.22 1019.13 1019.05 1018.98 1018.91 1018.85 1018.80 1018.77 1018.77 1018.81 1018.89
1017.91 1018.34 1018.81 1019.29 1019.76 1020.19 1020.58 1020.93 1021.22 1021.46 1021.63 1021.72 1021.72 1021.63 1021.44 1021.19 1020.89 1020.57 1020.28 1020.04 1019.87 1019.77 1019.74 1019.75 1019.77 1019.79 1019.78 1019.74 1019.67 1019.57 1019.47 1019.36 1019.26 1019.18 1019.11 1019.03 1018.96 1018.89 1018.83 1018.77 1018.73 1018.73 1018.77
1017.54 1018.03 1018.56 1019.11 1019.64 1020.11 1020.53 1020.90 1021.20 1021.45 1021.64 1021.75 1021.77 1021.71 1021.54 1021.29 1020.97 1020.62 1020.27 1019.97 1019.73 1019.57 1019.49 1019.48 1019.51 1019.55 1019.58 1019.59 1019.57 1019.52 1019.46 1019.39 1019.32 1019.26 1019.20 1019.14 1019.07 1018.98 1018.89 1018.80 1018.71 1018.65 1018.63
1017.30 1017.83 1018.41 1019.00 1019.55 1020.03 1020.46 1020.81 1021.11 1021.35 1021.54 1021.66 1021.72 1021.67 1021.53 1021.29 1020.96 1020.58 1020.19 1019.83 1019.53 1019.32 1019.20 1019.16 1019.19 1019.25 1019.32 1019.38 1019.41 1019.41 1019.40 1019.37 1019.34 1019.30 1019.26 1019.21 1019.14 1019.04 1018.92 1018.79 1018.65 1018.52 1018.42
1017.30 1017.86 1018.46 1019.05 1019.60 1020.07 1020.46 1020.79 1021.05 1021.27 1021.45 1021.58 1021.64 1021.62 1021.50 1021.27 1020.94 1020.53 1020.10 1019.68 1019.33 1019.06 1018.89 1018.82 1018.84 1018.91 1019.01 1019.10 1019.18 1019.23 1019.25 1019.26 1019.26 1019.25 1019.22 1019.18 1019.11 1019.00 1018.86 1018.68 1018.48 1018.28 1018.10
1017.58 1018.15 1018.75 1019.33 1019.84 1020.27 1020.62 1020.89 1021.10 1021.29 1021.44 1021.56 1021.63 1021.62 1021.51 1021.28 1020.94 1020.51 1020.03 1019.57 1019.15 1018.82 1018.60 1018.50 1018.49 1018.55 1018.65 1018.77 1018.87 1018.95 1019.00 1019.03 1019.05 1019.05 1019.03 1019.00 1018.92 1018.81 1018.64 1018.43 1018.19 1017.93 1017.69
1018.11 1018.68 1019.26 1019.80 1020.26 1020.63 1020.90 1021.11 1021.27 1021.41 1021.53 1021.64 1021.69 1021.68 1021.56 1021.33 1020.98 1020.52 1020.01 1019.49 1019.01 1018.63 1018.35 1018.20 1018.15 1018.19 1018.28 1018.39 1018.49 1018.57 1018.63 1018.66 1018.68 1018.68 1018.67 1018.64 1018.56 1018.45 1018.28 1018.06 1017.79 1017.51 1017.23
1018.79 1019.34 1019.88 1020.36 1020.76 1021.06 1021.26 1021.40 1021.51 1021.59 1021.68 1021.75 1021.79 1021.77 1021.65 1021.40 1021.03 1020.56 1020.01 1019.45 1018.93 1018.49 1018.16 1017.95 1017.86 1017.86 1017.91 1017.99 1018.06 1018.12 1018.15 1018.16 1018.16 1018.15 1018.13 1018.10 1018.03 1017.93 1017.77 1017.57 1017.32 1017.03 1016.75
1019.50 1020.01 1020.50 1020.92 1021.25 1021.48 1021.61 1021.69 1021.73 1021.77 1021.82 1021.86 1021.88 1021.84 1021.71 1021.46 1021.08 1020.59 1020.03 1019.44 1018.88 1018.40 1018.03 1017.77 1017.62 1017.57 1017.57 1017.59 1017.61 1017.62 1017.60 1017.57 1017.53 1017.49 1017.45 1017.41 1017.35 1017.27 1017.15 1016.98 1016.76 1016.52 1016.26
1020.14 1020.61 1021.03 1021.39 1021.65 1021.81 1021.89 1021.91 1021.90 1021.89 1021.90 1021.91 1021.91 1021.85 1021.71 1021.46 1021.08 1020.60 1020.04 1019.45 1018.89 1018.38 1017.97 1017.67 1017.47 1017.35 1017.28 1017.23 1017.18 1017.11 1017.03 1016.92 1016.82 1016.73 1016.66 1016.60 1016.55 1016.48 1016.40 1016.29 1016.14 1015.96 1015.76
1020.66 1021.07 1021.44 1021.73 1021.93 1022.03 1022.06 1022.03 1021.98 1021.94 1021.91 1021.89 1021.87 1021.80 1021.65 1021.40 1021.05 1020.59 1020.06 1019.49 1018.94 1018.43 1018.00 1017.67 1017.42 1017.23 1017.08 1016.95 1016.80 1016.64 1016.46 1016.27 1016.09 1015.93 1015.80 1015.71 1015.64 1015.59 1015.55 1015.49 1015.40 1015.30 1015.18
1021.07 1021.42 1021.73 1021.97 1022.12 1022.18 1022.17 1022.10 1022.02 1021.94 1021.88 1021.83 1021.78 1021.69 1021.55 1021.32 1020.99 1020.57 1020.08 1019.55 1019.03 1018.54 1018.11 1017.74 1017.44 1017.19 1016.96 1016.73 1016.48 1016.22 1015.93 1015.64 1015.36 1015.12 1014.92 1014.77 1014.67 1014.61 1014.57 1014.55 1014.53 1014.50 1014.45
1021.42 1021.72 1021.98 1022.17 1022.29 1022.32 1022.28 1022.19 1022.08 1021.96 1021.86 1021.77 1021.69 1021.59 1021.44 1021.22 1020.93 1020.55 1020.12 1019.64 1019.16 1018.69 1018.26 1017.87 1017.52 1017.20 1016.88 1016.56 1016.21 1015.84 1015.45 1015.05 1014.67 1014.33 1014.04 1013.81 1013.65 1013.55 1013.50 1013.48 1013.50 1013.52 1013.54
1021.79 1022.03 1022.25 1022.42 1022.52 1022.53 1022.47 1022.36 1022.21 1022.06 1021.91 1021.78 1021.66 1021.52 1021.36 1021.15 1020.88 1020.55 1020.16 1019.73 1019.28 1018.83 1018.39 1017.98 1017.58 1017.20 1016.80 1016.39 1015.96 1015.49 1015.00 1014.51 1014.03 1013.58 1013.19 1012.87 1012.62 1012.46 1012.36 1012.32 1012.34 1012.39 1012.45
1022.19 1022.40 1022.59 1022.75 1022.83 1022.84 1022.77 1022.64 1022.46 1022.26 1022.06 1021.87 1021.69 1021.52 1021.33 1021.11 1020.85 1020.54 1020.18 1019.77 1019.35 1018.90 1018.46 1018.01 1017.57 1017.12 1016.66 1016.18 1015.67 1015.13 1014.57 1014.00 1013.44 1012.91 1012.43 1012.00 1011.66 1011.40 1011.23 1011.14 1011.12 1011.16 1011.25
1022.63 1022.81 1023.00 1023.15 1023.24 1023.24 1023.16 1023.00 1022.79 1022.54 1022.28 1022.03 1021.78 1021.55 1021.32 1021.07 1020.79 1020.48 1020.13 1019.73 1019.31 1018.85 1018.38 1017.90 1017.41 1016.92 1016.41 1015.88 1015.33 1014.75 1014.16 1013.55 1012.94 1012.34 1011.78 1011.27 1010.83 1010.47 1010.20 1010.03 1009.95 1009.96 1010.04
1023.06 1023.23 1023.42 1023.57 1023.67 1023.67 1023.58 1023.40 1023.14 1022.84 1022.52 1022.19 1021.87 1021.57 1021.28 1020.99 1020.68 1020.35 1019.98 1019.57 1019.12 1018.64 1018.14 1017.62 1017.09 1016.55 1016.02 1015.47 1014.91 1014.34 1013.75 1013.14 1012.52 1011.90 1011.29 1010.71 1010.19 1009.73 1009.36 1009.10 1008.95 1008.91 1008.96
1023.42 1023.60 1023.79 1023.95 1024.04 1024.05 1023.94 1023.73 1023.44 1023.08 1022.70 1022.30 1021.91 1021.54 1021.18 1020.84 1020.49 1020.11 1019.71 1019.27 1018.78 1018.27 1017.72 1017.17 1016.61 1016.05 1015.51 1014.98 1014.45 1013.91 1013.37 1012.80 1012.21 1011.60 1010.98 1010.36 1009.78 1009.24 1008.79 1008.43 1008.20 1008.08 1008.08
1023.67 1023.86 1024.05 1024.21 1024.31 1024.30 1024.18 1023.94 1023.61 1023.21 1022.76 1022.30 1021.85 1021.42 1021.00 1020.60 1020.20 1019.78 1019.33 1018.85 1018.32 1017.77 1017.19 1016.60 1016.02 1015.47 1014.94 1014.45 1013.97 1013.51 1013.03 1012.54 1012.01 1011.45 1010.85 1010.22 1009.60 1009.01 1008.48 1008.04 1007.72 1007.53 1007.47
1023.81 1024.00 1024.19 1024.35 1024.43 1024.40 1024.26 1024.00 1023.64 1023.20 1022.71 1022.20 1021.70 1021.22 1020.76 1020.31 1019.86 1019.40 1018.91 1018.38 1017.82 1017.23 1016.62 1016.01 1015.43 1014.89 1014.40 1013.95 1013.54 1013.16 1012.77 1012.37 1011.91 1011.41 1010.85 1010.24 1009.61 1008.98 1008.39 1007.88 1007.48 1007.21 1007.08
1023.87 1024.05 1024.23 1024.37 1024.44 1024.39 1024.22 1023.94 1023.55 1023.09 1022.57 1022.04 1021.51 1020.99 1020.49 1020.01 1019.52 1019.02 1018.50 1017.94 1017.34 1016.73 1016.10 1015.49 1014.92 1014.40 1013.94 1013.55 1013.21 1012.90 1012.59 1012.27 1011.89 1011.44 1010.92 1010.34 1009.70 1009.05 1008.42 1007.85 1007.38 1007.04 1006.83
Thickness
5727 5724 5720 5716 5715 5714 5712 5710 5711 5708 5707 5706 5706 5706 5705 5704 5703 5701 5697 5691 5689 5688 5687 5686 5685 5684 5683 5682 5681 5680 5679 5678 5677 5676 5675 5674 5673 5672 5671 5671 5671 5671 5670
5722 5719 5714 5710 5709 5707 5707 5704 5704 5701 5702 5701 5699 5696 5696 5696 5693 5691 5692 5687 5683 5682 5680 5680 5679 5678 5677 5676 5675 5674 5673 5672 5671 5670 5668 5667 5666 5665 5664 5663 5663 5663 5662
5713 5709 5706 5702 5700 5697 5694 5693 5692 5692 5692 5691 5689 5687 5686 5685 5685 5682 5682 5681 5680 5675 5673 5671 5670 5670 5669 5669 5668 5667 5666 5665 5664 5663 5661 5660 5658 5657 5656 5655 5654 5654 5654
5704 5698 5695 5692 5688 5686 5683 5682 5681 5681 5680 5680 5679 5677 5676 5674 5674 5673 5673 5672 5671 5669 5665 5662 5660 5660 5659 5659 5659 5658 5657 5656 5655 5654 5653 5651 5649 5648 5647 5646 5646 5645 5644
5695 5689 5684 5680 5677 5675 5672 5671 5668 5667 5666 5665 5666 5664 5665 5666 5664 5664 5662 5662 5660 5657 5657 5652 5650 5649 5648 5647 5647 5646 5646 5645 5644 5643 5642 5641 5639 5638 5637 5636 5635 5635 5635
5687 5682 5675 5670 5666 5664 5662 5660 5657 5654 5653 5653 5655 5654 5653 5654 5654 5654 5653 5652 5650 5649 5648 5644 5643 5641 5638 5636 5634 5634 5633 5632 5631 5630 5629 5628 5626 5626 5625 5624 5624 5623 5623
5684 5676 5669 5664 5659 5656 5653 5650 5647 5645 5643 5643 5643 5643 5644 5644 5645 5644 5644 5643 5641 5638 5637 5634 5633 5631 5631 5625 5622 5620 5618 5617 5616 5615 5614 5612 5611 5611 5611 5610 5610 5610 5610
5681 5673 5666 5660 5654 5651 5646 5643 5641 5638 5637 5634 5635 5635 5636 5637 5635 5637 5634 5632 5631 5629 5627 5625 5621 5617 5617 5615 5612 5607 5603 5601 5600 5598 5597 5596 5595 5595 5595 5594 5595 5595 5596
5677 5669 5663 5657 5651 5647 5642 5638 5635 5632 5629 5626 5625 5625 5626 5629 5632 5629 5626 5623 5619 5617 5616 5614 5609 5606 5602 5599 5597 5595 5590 5586 5583 5581 5580 5579 5578 5578 5578 5577 5578 5579 5580
5672 5664 5658 5653 5647 5643 5637 5633 5629 5627 5623 5620 5617 5615 5614 5613 5613 5619 5617 5614 5609 5604 5602 5599 5597 5594 5589 5585 5582 5576 5573 5569 5565 5563 5561 5560 5559 5559 5559 5559 5560 5561 5563
5661 5656 5651 5645 5640 5634 5629 5624 5620 5618 5615 5612 5610 5608 5605 5602 5601 5600 5602 5601 5599 5595 5591 5586 5581 5577 5573 5569 5566 5563 5559 5552 5547 5545 5543 5541 5540 5540 5540 5540 5541 5543 5546
5650 5646 5641 5635 5629 5624 5619 5614 5610 5607 5604 5600 5599 5597 5595 5594 5592 5590 5587 5585 5584 5582 5577 5571 5565 5561 5558 5554 5550 5545 5540 5534 5530 5527 5525 5523 5522 5521 5521 5522 5523 5525 5527
5639 5633 5628 5623 5618 5613 5608 5603 5600 5596 5592 5587 5585 5584 5582 5579 5576 5572 5570 5570 5569 5568 5563 5557 5551 5546 5540 5536 5531 5527 5522 5517 5513 5510 5507 5505 5504 5503 5503 5503 5504 5505 5507
5626 5620 5614 5610 5605 5600 5596 5591 5588 5583 5578 5575 5572 5567 5564 5563 5560 5556 5554 5552 5552 5553 5549 5543 5537 5529 5523 5517 5512 5507 5504 5502 5498 5494 5490 5488 5486 5485 5485 5485 5485 5486 5488
5611 5605 5600 5595 5590 5585 5581 5577 5573 5568 5564 5561 5558 5553 5549 5547 5544 5540 5536 5532 5530 5532 5533 5526 5518 5513 5505 5499 5494 5490 5488 5486 5483 5479 5475 5472 5470 5469 5469 5468 5469 5469 5471
5595 5590 5585 5579 5574 5570 5565 5562 5558 5553 5549 5545 5540 5535 5531 5531 5528 5524 5521 5517 5513 5511 5512 5506 5499 5495 5488 5482 5478 5475 5473 5470 5468 5466 5462 5459 5457 5456 5455 5455 5455 5455 5456
5580 5575 5570 5565 5559 5555 5550 5546 5543 5538 5534 5529 5524 5522 5517 5512 5509 5507 5505 5501 5498 5494 5493 5490 5483 5478 5472 5467 5463 5460 5459 5458 5458 5456 5453 5450 5448 5446 5444 5444 5444 5444 5444
5564 5558 5553 5548 5543 5538 5534 5530 5526 5521 5517 5513 5509 5505 5501 5498 5493 5490 5488 5485 5481 5476 5472 5471 5467 5463 5458 5454 5451 5449 5448 5447 5447 5447 5444 5442 5441 5439 5438 5437 5436 5436 5436
5546 5541 5536 5531 5526 5521 5517 5513 5508 5505 5501 5497 5493 5489 5486 5482 5479 5477 5472 5469 5466 5463 5458 5456 5455 5451 5447 5444 5442 5440 5440 5438 5438 5439 5439 5438 5437 5436 5434 5433 5432 5432 5431
5529 5524 5519 5514 5510 5506 5501 5496 5492 5489 5485 5482 5478 5475 5472 5469 5466 5462 5460 5456 5453 5450 5446 5443 5442 5441 5438 5436 5434 5433 5433 5432 5431 5432 5433 5435 5435 5434 5433 5432 5431 5430 5429
5512 5507 5503 5499 5494 5490 5483 5476 5474 5475 5471 5469 5467 5464 5461 5457 5451 5447 5445 5444 5441 5438 5436 5434 5434 5434 5432 5430 5428 5426 5425 5425 5426 5425 5428 5430 5431 5432 5432 5432 5431 5430 5428
5496 5492 5487 5483 5478 5473 5461 5456 5454 5458 5458 5457 5455 5453 5451 5448 5444 5437 5433 5430 5427 5427 5428 5427 5427 5427 5427 5425 5423 5420 5419 5418 5420 5421 5420 5423 5425 5428 5430 5431 5431 5430 5427
5480 5475 5471 5466 5462 5454 5446 5442 5441 5441 5446 5445 5443 5441 5440 5439 5433 5431 5427 5424 5424 5424 5422 5421 5422 5423 5422 5419 5416 5414 5412 5411 5413 5415 5415 5419 5422 5425 5426 5429 5428 5426 5425
5464 5460 5455 5451 5448 5442 5434 5430 5429 5433 5435 5434 5432 5431 5429 5428 5425 5419 5418 5420 5423 5425 5423 5422 5421 5419 5417 5414 5411 5409 5408 5409 5411 5412 5412 5413 5418 5420 5423 5425 5425 5424 5423
5449 5446 5441 5438 5434 5430 5422 5419 5416 5423 5425 5424 5423 5423 5421 5418 5414 5410 5412 5419 5422 5424 5424 5421 5419 5417 5415 5412 5408 5407 5408 5407 5408 5411 5410 5408 5411 5413 5419 5423 5424 5422 5421
5436 5433 5429 5425 5422 5418 5412 5408 5404 5412 5413 5413 5415 5415 5414 5411 5407 5407 5411 5417 5420 5422 5423 5423 5422 5420 5417 5414 5410 5407 5406 5404 5404 5405 5406 5402 5404 5405 5411 5419 5420 5420 5420